{"data":{"norad_id":47746,"epoch":"2026-09-20T03:56:08.265120Z","epoch_age_seconds":54718,"freshness":"FRESH","line1":"1 47746U 21017AA  26263.16398455  .00097489  00000+0  55054-3 0  9997","line2":"2 47746  53.1530 350.8014 0006871 355.5786   4.5173 15.78363735308020","mean_motion":15.78363735,"eccentricity":0.0006871,"inclination_deg":53.153,"raan_deg":350.8014,"arg_perigee_deg":355.5786,"mean_anomaly_deg":4.5173,"bstar":0.00055054,"rev_number":30802,"period_min":91.233723131633,"perigee_km":330.46363722908,"apogee_km":339.6889349268,"semimajor_km":6713.2132860779,"source":"CELESTRAK","updated_at":"2026-09-20T09:00:38.601402Z"}}